�������l�o���
Date,Time,MP-1(��Sv/h),MP-2(��Sv/h),MP-3(��Sv/h),MP-4(��Sv/h),MP-5(��Sv/h),MP-6(��Sv/h),MP-7(��Sv/h),MP-8(��Sv/h),����,����(m/s),���J
2016/06/27,00:00,1.293,-,2.210,2.223,1.913,0.640,1.192,1.034,�k�k��,3.6,��
2016/06/27,00:10,1.293,-,2.210,2.222,1.915,0.639,1.194,1.032,�k��,3.7,��
2016/06/27,00:20,1.291,-,2.211,2.225,1.912,0.637,1.195,1.031,�k��,3.9,��
2016/06/27,00:30,1.292,-,2.210,2.230,1.911,0.638,1.192,1.032,�k��,3.8,��
2016/06/27,00:40,1.290,-,2.207,2.227,1.913,0.638,1.192,1.034,�k��,4.6,��
2016/06/27,00:50,1.291,-,2.209,2.223,1.912,0.640,1.193,1.033,�k��,4.0,��
2016/06/27,01:00,1.292,-,2.211,2.227,1.911,0.638,1.195,1.032,�k��,4.9,��
2016/06/27,01:10,1.290,-,2.211,2.227,1.914,0.639,1.193,1.033,�k�k��,5.4,��
2016/06/27,01:20,1.290,-,2.207,2.229,1.911,0.638,1.193,1.034,�k��,5.6,��
2016/06/27,01:30,1.292,-,2.210,2.225,1.912,0.639,1.191,1.031,�k��,5.2,��
2016/06/27,01:40,1.293,-,2.211,2.229,1.911,0.639,1.194,1.032,�k�k��,4.1,��
2016/06/27,01:50,1.290,-,2.208,2.225,1.912,0.638,1.192,1.033,�k�k��,4.6,��
2016/06/27,02:00,1.292,-,2.208,2.229,1.913,0.639,1.194,1.033,�k�k��,4.1,��
2016/06/27,02:10,1.292,-,2.209,2.224,1.910,0.640,1.194,1.030,�k�k��,3.8,��
2016/06/27,02:20,1.290,-,2.210,2.226,1.911,0.638,1.192,1.030,�k�k��,4.4,��
2016/06/27,02:30,1.292,-,2.202,2.227,1.912,0.639,1.191,1.031,�k�k��,4.0,��
2016/06/27,02:40,1.294,-,2.212,2.222,1.910,0.638,1.193,1.033,�k�k��,3.8,��
2016/06/27,02:50,1.292,-,2.208,2.227,1.912,0.639,1.192,1.032,�k�k��,3.4,��
2016/06/27,03:00,1.292,-,2.207,2.226,1.911,0.637,1.193,1.032,�k�k��,3.2,��
2016/06/27,03:10,1.290,-,2.208,2.229,1.910,0.639,1.192,1.031,�k�k��,2.6,��
2016/06/27,03:20,1.290,-,2.207,2.224,1.911,0.639,1.189,1.031,�k�k��,2.6,��
2016/06/27,03:30,1.293,-,2.207,2.225,1.912,0.637,1.191,1.033,�k�k��,2.0,��
2016/06/27,03:40,1.291,-,2.207,2.224,1.911,0.639,1.192,1.030,�k�k��,0.9,��
2016/06/27,03:50,1.293,-,2.208,2.225,1.910,0.638,1.193,1.030,�k��,0.8,��
2016/06/27,04:00,1.288,-,2.208,2.226,1.912,0.637,1.193,1.031,���k��,0.6,��
2016/06/27,04:10,1.290,-,2.207,2.224,1.911,0.638,1.191,1.031,�k�k��,0.9,��
2016/06/27,04:20,1.288,-,2.205,2.223,1.907,0.637,1.191,1.030,�k��,1.9,��
2016/06/27,04:30,1.288,-,2.206,2.224,1.908,0.638,1.192,1.032,���k��,2.0,��
2016/06/27,04:40,1.289,-,2.205,2.224,1.910,0.638,1.193,1.034,�k��,1.1,��
2016/06/27,04:50,1.291,-,2.206,2.223,1.907,0.638,1.192,1.030,�k��,1.7,��
2016/06/27,05:00,1.290,-,2.206,2.223,1.910,0.638,1.194,1.030,���k��,1.7,��
2016/06/27,05:10,1.288,-,2.207,2.223,1.907,0.636,1.190,1.031,���k��,3.0,��
2016/06/27,05:20,1.290,-,2.206,2.227,1.910,0.633,1.193,1.033,�k�k��,2.8,��
2016/06/27,05:30,1.288,-,2.209,2.225,1.909,0.634,1.192,1.030,�k��,2.8,��
2016/06/27,05:40,1.290,-,2.206,2.227,1.912,0.635,1.193,1.032,�k��,3.7,��
2016/06/27,05:50,1.291,-,2.208,2.223,1.911,0.635,1.191,1.031,�k,3.1,��
2016/06/27,06:00,1.290,-,2.207,2.225,1.913,0.636,1.194,1.032,�k�k��,2.8,��
2016/06/27,06:10,1.290,-,2.206,2.227,1.913,0.636,1.194,1.032,�k,2.6,��
2016/06/27,06:20,1.290,-,2.210,2.225,1.910,0.637,1.192,1.033,�k�k��,2.5,��
2016/06/27,06:30,1.292,-,2.212,2.221,1.911,0.636,1.196,1.032,�k�k��,2.8,��
2016/06/27,06:40,1.292,-,2.211,2.228,1.912,0.636,1.195,1.034,�k,3.4,��
2016/06/27,06:50,1.292,-,2.211,2.228,1.910,0.637,1.196,1.033,�k�k��,3.6,��
2016/06/27,07:00,1.293,-,2.201,2.228,1.913,0.635,1.194,1.034,�k�k��,4.2,��
2016/06/27,07:10,1.292,-,2.210,2.228,1.911,0.634,1.193,1.032,�k�k��,4.5,��
2016/06/27,07:20,1.291,-,2.213,2.230,1.915,0.635,1.192,1.032,�k�k��,4.7,��
2016/06/27,07:30,1.290,-,2.219,2.230,1.915,0.634,1.192,1.033,�k��,3.4,��
2016/06/27,07:40,1.292,-,2.217,2.230,1.912,0.633,1.190,1.033,�k�k��,3.1,��
2016/06/27,07:50,1.293,-,2.213,2.232,1.914,0.635,1.190,1.030,�k��,3.3,��
2016/06/27,08:00,1.295,-,2.236,2.228,1.915,0.634,1.191,1.031,�k��,4.1,��
2016/06/27,08:10,1.296,-,2.236,2.231,1.916,0.635,1.189,1.031,�k��,4.4,��
2016/06/27,08:20,1.294,-,2.236,2.230,1.913,0.633,1.192,1.028,���k��,3.3,��
2016/06/27,08:30,1.293,-,2.237,2.230,1.915,0.634,1.191,1.029,�k��,3.6,��
2016/06/27,08:40,1.290,-,2.239,2.232,1.912,0.635,1.191,1.028,�k��,3.4,��
2016/06/27,08:50,1.290,-,2.239,2.233,1.912,0.637,1.192,1.029,���k��,3.3,��
2016/06/27,09:00,1.293,-,2.239,2.231,1.917,0.636,1.188,1.030,���k��,3.0,��
2016/06/27,09:10,1.293,-,2.238,2.232,1.909,0.635,1.189,1.030,���k��,2.6,��
2016/06/27,09:20,1.293,-,2.239,2.230,1.899,0.636,1.193,1.030,���쓌,3.0,��
2016/06/27,09:30,1.292,-,2.243,2.237,1.917,0.636,1.194,1.029,��,2.8,��
2016/06/27,09:40,1.288,-,2.237,2.235,1.918,0.637,1.192,1.030,��,2.9,��
2016/06/27,09:50,1.291,-,2.238,2.235,1.916,0.638,1.192,1.028,���쓌,4.0,��
2016/06/27,10:00,1.292,-,2.239,2.236,1.900,0.638,1.193,1.031,��,3.1,��
2016/06/27,10:10,1.289,-,2.244,2.233,1.896,0.638,1.195,1.030,���쓌,3.3,��
2016/06/27,10:20,1.291,-,2.242,2.234,1.876,0.637,1.192,1.031,�쓌,3.1,��
2016/06/27,10:30,1.290,-,2.251,2.236,1.856,0.637,1.192,1.030,���쓌,3.4,��
2016/06/27,10:40,1.292,-,2.249,2.236,1.839,0.638,1.192,1.031,�쓌,2.6,��
2016/06/27,10:50,1.291,-,2.250,2.235,1.836,0.639,1.194,1.032,�쓌,3.9,��
2016/06/27,11:00,1.294,-,2.252,2.235,1.840,0.636,1.193,1.030,�쓌,4.4,��
2016/06/27,11:10,1.292,-,2.250,2.232,1.828,0.639,1.194,1.032,�쓌,4.5,��
2016/06/27,11:20,1.290,-,2.251,2.232,1.838,0.640,1.195,1.030,�쓌,3.0,��
2016/06/27,11:30,1.293,-,2.255,2.229,1.843,0.640,1.196,1.033,�쓌,3.7,��
2016/06/27,11:40,1.294,-,2.252,2.233,1.845,0.637,1.193,1.032,�쓌,3.4,��
2016/06/27,11:50,1.293,-,2.253,2.233,1.852,0.638,1.195,1.032,���쓌,3.6,��
2016/06/27,12:00,1.292,-,2.252,2.235,1.853,0.637,1.196,1.032,���쓌,4.3,��
2016/06/27,12:10,1.291,-,2.253,2.236,1.848,0.639,1.196,1.032,�쓌,4.2,��
2016/06/27,12:20,1.295,-,2.254,2.236,1.850,0.640,1.195,1.033,�쓌,4.6,��
2016/06/27,12:30,1.292,-,2.254,2.236,1.853,0.639,1.197,1.032,���쓌,3.8,��
2016/06/27,12:40,1.294,-,2.256,2.236,1.854,0.638,1.195,1.033,���쓌,4.4,��
2016/06/27,12:50,1.295,-,2.255,2.236,1.855,0.639,1.195,1.031,���쓌,5.1,��
2016/06/27,13:00,1.293,-,2.259,2.238,1.856,0.639,1.195,1.033,�쓌,5.1,��
2016/06/27,13:10,1.293,-,2.257,2.235,1.856,0.639,1.196,1.032,���쓌,5.2,��
2016/06/27,13:20,1.294,-,2.260,2.235,1.856,0.639,1.196,1.031,�쓌,5.8,��
2016/06/27,13:30,1.295,-,2.261,2.236,1.829,0.637,1.195,1.034,�쓌,5.1,��
2016/06/27,13:40,1.295,-,2.262,2.240,1.852,0.639,1.195,1.032,�쓌,5.5,��
2016/06/27,13:50,1.298,-,2.264,2.237,1.837,0.641,1.196,1.030,��쓌,5.5,��
2016/06/27,14:00,1.296,-,2.264,2.237,1.828,0.640,1.196,1.030,��쓌,6.2,��
2016/06/27,14:10,1.296,-,2.265,2.238,1.830,0.640,1.196,1.034,��쓌,7.0,��
2016/06/27,14:20,1.296,-,2.265,2.239,1.831,0.640,1.196,1.033,��쓌,6.6,��
2016/06/27,14:30,1.298,-,2.265,2.241,1.836,0.639,1.197,1.032,��쓌,7.4,��
2016/06/27,14:40,1.298,-,2.263,2.238,1.836,0.641,1.195,1.032,��쓌,6.6,��
2016/06/27,14:50,1.296,-,2.266,2.241,1.838,0.640,1.197,1.034,��쓌,8.2,��
2016/06/27,15:00,1.298,-,2.265,2.237,1.828,0.642,1.197,1.033,��쓌,7.6,��
2016/06/27,15:10,1.296,-,2.265,2.241,1.833,0.640,1.198,1.033,��쓌,7.2,��
2016/06/27,15:20,1.297,-,2.265,2.240,1.837,0.640,1.196,1.035,��쓌,8.2,��
2016/06/27,15:30,1.297,-,2.268,2.239,1.839,0.640,1.196,1.032,��쓌,7.0,��
2016/06/27,15:40,1.295,-,2.269,2.239,1.842,0.640,1.196,1.033,��쓌,7.3,��
2016/06/27,15:50,1.297,-,2.268,2.240,1.838,0.640,1.195,1.032,��쓌,8.3,��
2016/06/27,16:00,1.296,-,2.269,2.242,1.839,0.642,1.198,1.031,��쓌,7.5,��
2016/06/27,16:10,1.297,-,2.268,2.242,1.842,0.641,1.195,1.032,��쓌,7.8,��
2016/06/27,16:20,1.299,-,2.267,2.241,1.842,0.641,1.197,1.034,��쓌,8.1,��
2016/06/27,16:30,1.299,-,2.267,2.242,1.838,0.640,1.198,1.034,��쓌,7.5,��
2016/06/27,16:40,1.300,-,2.270,2.242,1.844,0.639,1.196,1.033,��쓌,7.5,��
2016/06/27,16:50,1.298,-,2.271,2.241,1.841,0.643,1.197,1.034,��쓌,7.6,��
2016/06/27,17:00,1.298,-,2.271,2.237,1.841,0.642,1.195,1.033,��쓌,8.1,��
2016/06/27,17:10,1.296,-,2.268,2.243,1.841,0.641,1.196,1.032,��쓌,7.5,��
2016/06/27,17:20,1.297,-,2.269,2.245,1.840,0.640,1.198,1.035,��쓌,7.6,��
2016/06/27,17:30,1.297,-,2.271,2.248,1.839,0.640,1.195,1.033,��쓌,6.8,��
2016/06/27,17:40,1.295,-,2.276,2.243,1.839,0.642,1.196,1.034,��쓌,6.2,��
2016/06/27,17:50,1.297,-,2.273,2.245,1.841,0.641,1.196,1.037,��쓌,6.9,��
2016/06/27,18:00,1.297,-,2.276,2.247,1.840,0.640,1.196,1.036,��쓌,6.7,��
2016/06/27,18:10,1.298,-,2.275,2.246,1.840,0.641,1.196,1.036,��쓌,6.8,��
2016/06/27,18:20,1.297,-,2.275,2.244,1.840,0.640,1.197,1.036,��쓌,8.4,��
2016/06/27,18:30,1.301,-,2.274,2.244,1.839,0.643,1.196,1.037,��쓌,7.7,��
2016/06/27,18:40,1.299,-,2.275,2.247,1.840,0.640,1.198,1.036,��쓌,8.4,��
2016/06/27,18:50,1.301,-,2.274,2.245,1.843,0.642,1.197,1.038,��,7.4,��
2016/06/27,19:00,1.300,-,2.271,2.246,1.842,0.643,1.197,1.037,��,7.1,��
2016/06/27,19:10,1.300,-,2.272,2.245,1.838,0.641,1.197,1.036,��,6.7,��
2016/06/27,19:20,1.298,-,2.271,2.244,1.840,0.641,1.199,1.037,��쓌,6.9,��
2016/06/27,19:30,1.300,-,2.276,2.250,1.838,0.642,1.199,1.039,��쓌,7.0,��
2016/06/27,19:40,1.299,-,2.273,2.245,1.838,0.641,1.199,1.038,��,6.3,��
2016/06/27,19:50,1.302,-,2.272,2.243,1.843,0.642,1.199,1.038,��,5.8,��
2016/06/27,20:00,1.301,-,2.272,2.244,1.840,0.643,1.200,1.038,��,5.1,��
2016/06/27,20:10,1.301,-,2.271,2.248,1.841,0.642,1.200,1.036,��쓌,5.3,��
2016/06/27,20:20,1.298,-,2.271,2.247,1.844,0.643,1.201,1.037,��,5.4,��
2016/06/27,20:30,1.299,-,2.273,2.250,1.846,0.642,1.199,1.038,��쓌,5.3,��
2016/06/27,20:40,1.297,-,2.273,2.248,1.844,0.642,1.199,1.037,��쓌,5.8,��
2016/06/27,20:50,1.300,-,2.272,2.246,1.842,0.641,1.199,1.035,��,6.0,��
2016/06/27,21:00,1.301,-,2.270,2.244,1.844,0.642,1.199,1.037,��,5.8,��
2016/06/27,21:10,1.299,-,2.270,2.244,1.843,0.641,1.199,1.037,��,6.6,��
2016/06/27,21:20,1.302,-,2.271,2.246,1.845,0.641,1.200,1.035,��,7.4,��
2016/06/27,21:30,1.301,-,2.271,2.249,1.843,0.643,1.197,1.034,��쓌,6.9,��
2016/06/27,21:40,1.298,-,2.271,2.246,1.845,0.643,1.198,1.035,��,6.6,��
2016/06/27,21:50,1.300,-,2.272,2.246,1.843,0.643,1.198,1.036,��,6.8,��
2016/06/27,22:00,1.298,-,2.274,2.246,1.840,0.643,1.198,1.037,��,6.4,��
2016/06/27,22:10,1.298,-,2.270,2.245,1.842,0.641,1.199,1.036,��,5.6,��
2016/06/27,22:20,1.302,-,2.276,2.245,1.842,0.641,1.200,1.037,��,6.5,��
2016/06/27,22:30,1.299,-,2.270,2.247,1.841,0.641,1.199,1.038,��,5.7,��
2016/06/27,22:40,1.299,-,2.273,2.244,1.845,0.642,1.197,1.036,��쓌,5.8,��
2016/06/27,22:50,1.299,-,2.272,2.249,1.843,0.641,1.198,1.037,��쓌,5.9,��
2016/06/27,23:00,1.298,-,2.269,2.246,1.841,0.642,1.197,1.037,��쓌,4.3,��
2016/06/27,23:10,1.298,-,2.272,2.245,1.838,0.642,1.199,1.037,��,2.9,��
2016/06/27,23:20,1.298,-,2.270,2.246,1.843,0.641,1.198,1.037,��,4.5,��
2016/06/27,23:30,1.302,-,2.270,2.245,1.843,0.642,1.197,1.035,��쓌,3.7,��
2016/06/27,23:40,1.301,-,2.272,2.248,1.845,0.640,1.199,1.036,��쓌,4.3,��
2016/06/27,23:50,1.298,-,2.272,2.246,1.843,0.641,1.198,1.037,�쓌,2.6,��
